Regional Weather Roundup
Issued by NWS Grand Forks, ND

Home | Current Version | Previous Version | Graphics & Text | Print | Product List | Glossary On
Versions: 1 2 3 4 5 6 7 8 9 10 11 12 13 14 15 16 17 18 19 20 21 22 23 24 25 26 27 28 29 30 31 32 33 34 35 36 37 38 39 40 41 42 43 44 45 46 47 48 49 50
000
ASUS43 KFGF 041310
RWRFGF
PRAIRIE TO PINES  WEATHER ROUNDUP
NATIONAL WEATHER SERVICE EASTERN NORTH DAKOTA/GRAND FORKS ND
800 AM CDT SAT JUL 04 2015

 **SATELLITE DATA USED TO AUGMENT SKY COVER AT AUTOMATED STATIONS**
 *****  WEATHER ACROSS EASTERN NORTH DAKOTA  *****

CITY           SKY/WX    TMP DP  RH WIND       PRES   REMARKS
GRAND FORKS    CLOUDY    65  62  90 S7        29.87S FOG
GRAND FRKS AFB SUNNY     67  64  89 S6        29.87S FOG
GRAND FRKS NWS   N/A     64 N/A N/A S9          N/A
DEVILS LAKE    MOSUNNY   70  63  78 S3        29.84S
FARGO          MOSUNNY   68  62  81 S7        29.89F HAZE
WAHPETON ARPT  CLOUDY    64  61  88 SE5       29.91F
$$

 ***** WEATHER ACROSS CENTRAL AND WESTERN NORTH DAKOTA  *****

CITY           SKY/WX    TMP DP  RH WIND       PRES   REMARKS
BISMARCK       SUNNY     67  65  93 SE6       29.84F FOG
MINOT          SUNNY     70  63  78 S8        29.78F HAZE
JAMESTOWN      PTSUNNY   68  64  87 S6        29.87F FOG
MINOT AFB      SUNNY     68  68 100 S5        29.77F FOG
GARRISON         N/A     68  65  90 SE5       29.81F
WILLISTON      SUNNY     70  61  73 S6        29.76F HAZE
DICKINSON      SUNNY     67  61  81 S10       29.81F HAZE
HETTINGER      MOSUNNY   66  60  81 SE6       29.85F HAZE
$$

 *****  OTHER AIRPORT OBSERVATIONS IN OUR AREA  *****

CITY           SKY/WX    TMP DP  RH WIND       PRES   REMARKS
WALHALLA       FAIR      66  66 100 MISG      29.83F FOG
GRAFTON AIRPOR FAIR      64  64 100 SE7       29.87S FOG
VALLEY CITY AR FAIR      64  64 100 S7        29.88F FOG
CANDO          FAIR      68  64  88 S8        29.84F FOG
CAVALIER APRT  FAIR      64  63  94 S7        29.85S FOG
GWINNER          N/A     70  70 100 S10       29.90F
SHEYENNE NWR     N/A     67  66  97 SE2       29.95S
ROLLA          FAIR      63  63 100 S6        29.85S FOG
 ***** THE ABOVE OBSERVATIONS ARE NON NWS ARE NOT QUALITY
       CONTROLLED AND MAY MIS-REPORT RAIN FOR SNOW...
$$

  *****  WEATHER ACROSS NORTHERN MINNESOTA  *****

CITY           SKY/WX    TMP DP  RH WIND       PRES   REMARKS
FLAG ISLAND    MOSUNNY   68  63  83 S6        29.90S
WARROAD        MOSUNNY   64  61  88 S3        29.91F
ROSEAU         MOSUNNY   64  57  77 S7        29.90S
HALLOCK        SUNNY     63  61  94 SE7       29.87R FOG
THF RVR FALLS  SUNNY     63  59  88 S5        29.91S
BAUDETTE       SUNNY     60  55  83 S6        29.92S
WASKISH        SUNNY     63  59  88 SE5       29.94S FOG
CROOKSTON      SUNNY     66  63  88 S6        29.90S FOG
$$
  *****  WEATHER ACROSS CENTRAL AND WEST MINNESOTA  *****

CITY           SKY/WX    TMP DP  RH WIND       PRES   REMARKS
FOSSTON        SUNNY     64  59  82 CALM      29.93S HAZE
BEMIDJI        SUNNY     62  59  90 CALM      29.95F
PARK RAPIDS    CLOUDY    62  60  93 E3        29.95F FOG
ELBOW LAKE     FAIR      66  64  91 SE5       29.93S FOG
WADENA         SUNNY     59  59 100 CALM      29.95S FOG
DETROIT LAKES    N/A     64  63  94 CALM      29.94F FOG
MOORHEAD         N/A     64  63  94 S8        29.91S FOG
FERGUS FALLS   SUNNY     68  64  88 S3        29.92F FOG
MORRIS MN        N/A     64  64 100 E3        29.92F FOG
STAPLES        SUNNY     61  59  94 CALM      29.95F FOG
$$
  *****  WEATHER ELSEWHERE ACROSS MINNESOTA  *****

CITY           SKY/WX    TMP DP  RH WIND       PRES   REMARKS
DULUTH         SUNNY     65  58  78 E6        29.98R
INTRNTL FALLS  SUNNY     57  55  93 SE5       29.95F
ELY            SUNNY     55  54  94 CALM      29.99F
CLOQUET        SUNNY     63  57  82 CALM      29.98R
WHEATON        SUNNY     64  63  94 CALM      29.93F FOG
BRAINERD       SUNNY     61  59  93 CALM      29.96S FOG
HIBBING        SUNNY     61  56  83 CALM      29.98S
ALEXANDRIA     PTSUNNY   66  63  90 SE5       29.96S FOG
SAINT CLOUD    CLOUDY    65  63  93 CALM      29.95R FOG
MINNEAPOLIS    PTSUNNY   68  61  78 CALM      29.95S HAZE
$$

  *****  WEATHER ACROSS SOUTH DAKOTA  *****

CITY           SKY/WX    TMP DP  RH WIND       PRES   REMARKS
SIOUX FALLS    SUNNY     65  62  90 S5        29.97R FOG
BROOKINGS      MOSUNNY   64  61  88 S6        29.97S
WATERTOWN      MOSUNNY   66  63  90 SE6       29.94F FOG
HURON          MOSUNNY   65  63  93 S8        29.91S FOG
SISSETON         N/A     66  64  93 SE5       29.91S
ABERDEEN       SUNNY     66  63  90 S7        29.90S FOG
MITCHELL       MOSUNNY   67  64  90 S9        29.94S
PIERRE         MOSUNNY   66  63  90 SE8       29.86F
MOBRIDGE       MOSUNNY   70  67  90 SE14      29.84F
RAPID CITY     SUNNY     64  61  90 SE9       29.87F
$$

  *****  SOME WEATHER IN NEARBY STATES *****

CITY           SKY/WX    TMP DP  RH WIND       PRES   REMARKS
GLASGOW MT     SUNNY     68  57  68 E8        29.73S
GREAT FALLS MT SUNNY     70  43  37 SW10      29.84S
CHEYENNE WY    MOSUNNY   63  56  78 W8        30.05F
SCOTTSBLUFF NE MOSUNNY   67  61  81 E10       29.94S
OMAHA NE       SUNNY     62  59  90 CALM      30.01S
DES MOINES IA  SUNNY     65  57  75 CALM      30.00S
DAVENPORT IA   SUNNY     64  59  83 NW3       30.01R
CHICAGO IL     SUNNY     67  56  67 NW5       29.98S
EAU CLAIRE WI  SUNNY     65  59  81 SW3       29.95S
LA CROSSE WI   SUNNY     65  61  87 S6        29.96S
$$

  *****  SOME NATIONAL WEATHER *****

CITY           SKY/WX    TMP DP  RH WIND       PRES   REMARKS
LA GUARDIA NY  CLOUDY    70  62  76 NE8       29.94S
RALEIGH NC     PTSUNNY   76  69  79 W12G20    29.97R
ATLANTA GA     RAIN      68  66  93 SW6       30.10F FOG
NEW ORLEANS LA CLOUDY    82  74  76 S10       30.06R
OKLAHOMA CITY  MOSUNNY   75  70  84 NE5       29.97R
ALBUQUERQUE NM PTSUNNY   71  56  58 N8        30.16R
SALT LAKE CITY CLOUDY    83  49  30 E6        29.92R
LOS ANGELES CA CLOUDY    63  60  90 SE5       29.89R
BOISE ID       CLEAR     71  38  29 S6        29.85R
SEATTLE WA     CLEAR     59  53  80 S3        29.90R
$$

*** WEATHER ACROSS MANITOBA...SASKATCHEWAN AND ONTARIO ***
                ***ONTARIO***

CITY           SKY/WX    TMP DP  RH WIND       PRES   REMARKS
GERALDTON      PTSUNNY   57  54  88 VRB2      29.99R
THUNDER BAY    MOSUNNY   57  55  94 W3        30.00R
SIOUX LOOKOUT  CLOUDY    61  57  88 VRB2      29.95S
TORONTO        PTSUNNY   66  48  52 NW3       29.95R
BIG TROUT LK   SUNNY     57  50  77 S7        29.89S
PICKLE LAKE    CLOUDY    59  54  82 S3        29.94R
DRYDEN         SUNNY     63  57  82 S7        29.94F
KENORA         MOSUNNY   64  57  77 S7        29.92S
$$
                *** MANITOBA***

CITY           SKY/WX    TMP DP  RH WIND       PRES   REMARKS
BRANDON        PTSUNNY   64  61  88 E3        29.78F SMOKE
DAUPHIN        SUNNY     72  64  78 SW10      29.72R HAZE
ISLAND LAKE    CLOUDY    63  57  82 S13G22    29.71F THUNDER
PILOT MOUND      N/A     64  63  94 S9          N/A
THE PAS        CLOUDY    64  61  88 W6        29.66S SMOKE
THOMPSON       CLOUDY    61  59  94 S3        29.60S SMOKE
WINNIPEG       SUNNY     64  61  88 S13       29.83F SMOKE
LYNN LAKE      CLOUDY    63  57  82 NW14G23   29.59R FOG
CHURCHILL      LGT RAIN  45  43  93 E26G37    29.72F
$$
                ***SASKATCHEWAN***

CITY           SKY/WX    TMP DP  RH WIND       PRES   REMARKS
ESTEVAN        CLOUDY    66  64  94 VRB2      29.77S SMOKE
KINDERSLEY     LGT RAIN  57  52  82 N10G17    29.85R
LLOYDMINSTER   PTSUNNY   61  46  59 NW8       29.85R
PRINCE ALBERT    N/A     63  55  77 NW2       29.76R SMOKE
REGINA         PTSUNNY   66  63  88 NE5       29.74R
YORKTON        PTSUNNY   66  64  94 N2        29.75F FOG
N. BATTLEFORD  CLOUDY    64  54  68 N5        29.82R
LA RONGE       SMOKE     61  48  63 NW2       29.75R VSB 3/8
SASKATOON      LGT RAIN  64  57  77 N8        29.79S
SWIFT CURRENT  TSTM      63  57  82 N8        29.83R
$$
NOTE: THESE ARE AUTOMATED STATIONS WITH LIMITED QUALITY CONTROL
      "FAIR" INDICATES FEW OR NO CLOUDS BELOW 12,000 FEET WITH NO
      SIGNIFICANT WEATHER AND/OR OBSTRUCTIONS TO VISIBILITY.
      SKY/WX - SKY CONDITION AND SIGNIFICANT WEATHER.
      TMP - AIR TEMPERATURE.    DP   - DEWPOINT TEMPERATURE.
      RH  - RELATIVE HUMIDITY.  PRES - PRESSURE.
      HX  - HEAT INDEX.         WCI  - WIND CHILL INDEX.
$



USA.gov is the U.S. government's official web portal to all federal, state and local government web resources and services.